Tracking 30990 objects as of 8-Jul-2025
HD Live streaming from Space Station
objects crossing your sky now

FENGYUN 1C DEB

Track FENGYUN 1C DEB now!
10-day predictions


NORAD ID: 30882
Int'l Code: 1999-025AXU
Perigee: 514.0 km
Apogee: 743.2 km
Inclination: 98.0 °
Period: 97.1 minutes
Semi major axis: 6999 km
RCS: 0.0116 m2 (small)
Launch date: May 10, 1999
Source: People's Republic of China (PRC)
Launch site: Taiyaun Space Center, China (TSC)

Note: This is SATELLITE DEBRIS
Your satellite tracking list
Your tracking list is empty




NASA's NSSDC Master Catalog

Two Line Element Set (TLE):
1 30882U 99025AXU 25187.96709092  .00006865  00000-0  68205-3 0  9990
2 30882  97.9640 243.6642 0163699 198.2120 161.3189 14.82490290972996
Source of the keplerian elements: AFSPC